OpenBCM V1.13 (Linux)

Packet Radio Mailbox

DB0FHN

[JN59NK Nuernberg]

 Login: GUEST





  
LU9DCE > KEP      16.04.19 20:34l 254 Lines 12448 Bytes #999 (0) @ WW
BID : 21592_LU9DCE
Read: DK3UZ DF7EAV GUEST
Subj: TLE 16 04
Path: DB0FHN<DB0BLO<DB0ERF<DB0RES<PI8CDR<GB7YEW<LU9DCE
Sent: 190416/1801Z 21592@LU9DCE.TOR.BA.ARG.SOAM LinBPQ6.0.18

            __    _  _  ___  ____   ___  ____    ____  ____  ____
           (  )  / )( \/ _ \(    \ / __)(  __)  (  _ \(  _ \/ ___)
           / (_/\) \/ (\__  )) D (( (__  ) _)    ) _ ( ) _ (\___ \
           \____/\____/(___/(____/ \___)(____)  (____/(____/(____/
               ESTACION DE PACKET RADIO - BUENOS AIRES (GF05OM)
                   BOLETINES INFORMATIVOS PROGRAMADOS (BIP)
                  SOPORTE TECNICO - HELLOCODELINUX@GMAIL.COM

+----------------------------------------------------------------------------+
OSCAR 7
1  7530U 74089B   19105.86223410 -.00000027 +00000-0 +11288-3 0  9998
2  7530 101.7376 074.1948 0012490 109.4338 304.2563 12.53637681032289
OSCAR 11 (UoSAT 2)
1 14781U 84021B   19106.54959588  .00000058  00000-0  13275-4 0  9991
2 14781  97.6171 134.2338 0009065 157.8299 202.3309 14.83076729889404
OSCAR 19 (LUSAT)
1 20442U 90005G   19105.77720151 -.00000004 +00000-0 +14773-4 0  9993
2 20442 098.6434 047.9033 0011455 343.5732 016.5079 14.32922087527164
EYESAT A
1 22825U 93061C   19105.90010968  .00000002  00000-0  18910-4 0  9992
2 22825  98.9000  93.0936 0008357 177.4134 182.7092 14.30055723332835
ITAMSAT
1 22826U 93061D   19105.91663572 +.00000017 +00000-0 +24194-4 0  9996
2 22826 098.8941 093.1099 0009102 166.8836 193.2584 14.30389077332789
RADIO ROSTO
1 23439U 94085A   19105.92502697 -.00000057 +00000-0 -40106-3 0  9991
2 23439 064.8163 219.2423 0147586 125.5446 235.9340 11.27567919000703
JAS 2
1 24278U 96046B   19105.88482777  .00000009  00000-0  43769-4 0  9997
2 24278  98.5279 267.9797 0351030  45.6381 317.2955 13.53090286119179
TECHSAT 1B
1 25397U 98043D   19105.80435622 -.00000022  00000-0  94793-5 0  9998
2 25397  98.6838  46.7409 0000904 163.5911 196.5297 14.23663511 78780
ISS (ZARYA)
1 25544U 98067A   19106.55696694  .00002192  00000-0  42527-4 0  9995
2 25544  51.6436 307.5682 0001469 184.1905 217.7875 15.52560399165684
PCSAT
1 26931U 01043C   19105.52898271 -.00000012 +00000-0 +27271-4 0  9994
2 26931 067.0507 169.2514 0005876 278.0251 082.0184 14.30538295915724
SAUDISAT 1C
1 27607U 02058C   19105.77027443  .00000011  00000-0  22400-4 0  9991
2 27607  64.5546 245.0245 0082392 268.6959  90.4704 14.75535806877601
CUTE-1
1 27844U 03031E   19106.54494286  .00000059  00000-0  46300-4 0  9992
2 27844  98.6862 115.6970 0009240 207.6161 152.4527 14.22170326819319
CUBESAT XI 4
1 27848U 03031J   19105.53387423 +.00000050 +00000-0 +42540-4 0  9991
2 27848 098.6941 115.1864 0008887 222.8542 137.1944 14.21766320818996
MOZHAYETS 4
1 27939U 03042A   19106.40108895  .00000126  00000-0  31171-4 0  9997
2 27939  98.0289 243.4905 0011382 267.0980  92.8927 14.66769635831262
CUBESAT XI 5
1 28895U 05043F   19106.34108668  .00000142  00000-0  36027-4 0  9996
2 28895  97.9486 251.2797 0016727 187.0160 173.0811 14.63649119718210
CUTE-1.7+APD II
1 32785U 08021C   19105.81459555 +.00000254 +00000-0 +33009-4 0  9994
2 32785 097.5498 108.5441 0014575 112.3364 247.9400 14.88279167594113
DELFI C3
1 32789U 08021G   19105.67075849  .00001426  00000-0  99743-4 0  9991
2 32789  97.4717 157.2499 0011633 352.7291   7.3766 15.06801633597324
SEEDS
1 32791U 08021J   19106.54433533  .00000270  00000-0  32749-4 0  9998
2 32791  97.5298 115.1423 0015074  88.8585 271.4361 14.90776231594709
YUBELEINY
1 32953U 08025A   19106.54508415  .00000020  00000-0  75656-4 0  9991
2 32953  82.5061 184.0301 0017887 266.4305  93.4731 12.43088838494469
PRISM (HITOMI)
1 33493U 09002B   19105.74578767  .00000143  00000-0  18176-4 0  9995
2 33493  98.1228  24.2776 0016285  38.5606 321.6774 14.96582822555587
KKS-1 (KISEKI)
1 33499U 09002H   19105.92648294 +.00000095 +00000-0 +22021-4 0  9994
2 33499 098.3543 302.5843 0010245 054.4639 305.7523 14.75423362549392
SWISSCUBE
1 35932U 09051B   19106.45375387  .00000134  00000-0  41425-4 0  9994
2 35932  98.5809 270.5985 0007588   9.0847 351.0486 14.56263708507578
BEESAT
1 35933U 09051C   19106.46065521  .00000112  00000-0  36255-4 0  9993
2 35933  98.5840 272.3325 0006119  24.5057 335.6430 14.56355547507688
ITUPSAT 1
1 35935U 09051E   19105.93198230 +.00000114 +00000-0 +37317-4 0  9992
2 35935 098.5951 272.0308 0008376 019.7456 340.4063 14.55518312507335
XIWANG-1 (HOPE-1)
1 36122U 09072B   19105.73980000 -.00000041  00000-0  40681-5 0  9995
2 36122 100.0734 111.1254 0007662 126.0176 234.1649 13.16349060448468
TISAT 1
1 36799U 10035E   19105.93108167 +.00000266 +00000-0 +32986-4 0  9990
2 36799 098.1462 256.0039 0010976 297.7932 062.2172 14.91053300475061
JUGNU
1 37839U 11058B   19103.14125572  .00000317  00000-0  27187-4 0  9996
2 37839  19.9625  18.3437 0018812 313.4982 188.8048 14.12646999387837
SRMSAT
1 37841U 11058D   19103.30811751  .00000293  00000-0  15910-4 0  9992
2 37841  19.9721  72.7310 0011878 186.5135 321.1871 14.10628593387301
M-CUBED/EXP-1 PRIME
1 37855U 11061F   19105.59195690 +.00000860 +00000-0 +51327-4 0  9993
2 37855 101.7239 328.2631 0173864 266.8154 091.3154 15.05267604406660
HORYU 2
1 38340U 12025D   19106.24581746  .00000181  00000-0  34559-4 0  9992
2 38340  98.3363 142.9087 0010697 332.2574  27.8062 14.75692402371806
STRAND 1
1 39090U 13009E   19106.54786649  .00000029  00000-0  25193-4 0  9995
2 39090  98.4951 313.5431 0010237 113.5668 246.6594 14.35078213321334
SOMP
1 39134U 13015E   19105.67445265 +.00001677 +00000-0 +86406-4 0  9994
2 39134 064.8633 227.8127 0024916 315.0424 044.8685 15.19990218330480
BEESAT 3
1 39135U 13015F   19105.68121652 +.00001174 +00000-0 +68346-4 0  9992
2 39135 064.8663 245.2058 0011900 316.2316 043.7866 15.17324589330145
BEESAT 2
1 39136U 13015G   19106.55165822  .00001005  00000-0  60803-4 0  9990
2 39136  64.8683 246.0258 0013046 309.8158  50.1818 15.16767693330598
CUBEBUG 1
1 39153U 13018D   19105.82933842  .00000203  00000-0  33406-4 0  9994
2 39153  97.9744 204.3297 0017942  49.1883 311.0882 14.80540387322376
ZACUBE
1 39417U 13066B   19106.53727635  .00000201  00000-0  31740-4 0  9997
2 39417  97.5665 123.5764 0057609 240.2779 119.2694 14.81084339291690
TRITON 1
1 39427U 13066M   19105.92165697 +.00000274 +00000-0 +51566-4 0  9992
2 39427 097.6711 087.2597 0114210 010.4588 349.8954 14.67809955288791
GOMX 1
1 39430U 13066Q   19106.47004630  .00000297  00000-0  62223-4 0  9993
2 39430  97.7397  67.2138 0152710  93.4190 268.4487 14.59221827287380
HUMSAT D
1 39433U 13066T   19105.77417418  .00000387  00000-0  43054-4 0  9991
2 39433  97.5611 155.8671 0031707 151.5642 208.7316 14.92133702293540
CUBEBUG 2
1 39440U 13066AA  19105.95151857 +.00000232 +00000-0 +39429-4 0  9991
2 39440 097.6021 108.1541 0078846 292.5143 066.7735 14.75823529289375
FUNCUBE 1
1 39444U 13066AE  19105.96486791 +.00000273 +00000-0 +40086-4 0  9990
2 39444 097.5651 124.9176 0056813 236.1746 123.4053 14.81895920289904
UWE-3
1 39446U 13066AG  19105.65872409 +.00000222 +00000-0 +36277-4 0  9994
2 39446 097.5832 114.8198 0068464 268.9856 090.3511 14.78357552289214
SPROUT
1 39770U 14029E   19106.25634638  .00000794  00000-0  94207-4 0  9992
2 39770  97.8801 209.9896 0007908 300.0744  59.9737 14.87257256265400
UNISAT 6
1 40012U 14033C   19105.59161805 +.00000180 +00000-0 +34364-4 0  9992
2 40012 097.7672 334.9293 0057222 305.6181 053.9705 14.73950234259241
DUCHIFAT 1
1 40021U 14033M   19105.77218766 +.00000323 +00000-0 +38928-4 0  9990
2 40021 097.9230 030.1614 0011395 260.7055 099.2874 14.90575314262028
QB50P1
1 40025U 14033R   19106.46134744  .00000289  00000-0  36845-4 0  9991
2 40025  97.9065  26.2474 0011007 267.9940  92.0016 14.88903921261912
CHUBUSAT 1
1 40300U 14070C   19106.34463568  .00000771  00000-0  36687-4 0  9994
2 40300  97.3313 182.1206 0018576 280.9695 142.7759 15.21995563246385
NUDT-PHONESAT
1 40900U 15049B   19106.50164826  .00002912  00000-0  12831-3 0  9993
2 40900  97.4405 116.4673 0014793  52.0811 106.7383 15.22524530198042
ZDPS 2A
1 40901U 15049C   19106.44975096  .00001115  00000-0  58684-4 0  9997
2 40901  97.4612 113.1928 0015417  65.5020  38.4749 15.17611753197645
ZDPS 2B
1 40902U 15049D   19106.40669414  .00001598  00000-0  83122-4 0  9998
2 40902  97.4554 110.7370 0015446  63.8933  73.4961 15.17388885197610
XW-2A
1 40903U 15049E   19106.43755016  .00002609  00000-0  63893-4 0  9993
2 40903  97.3459 148.8283 0014326  22.7395 101.4793 15.41606420200504
KAITUO 1A
1 40904U 15049F   19106.47824045  .00000873  00000-0  49714-4 0  9994
2 40904  97.4677 109.5753 0016521  69.6142  53.6242 15.15304237197428
OBJECT G
1 40905U 15049G   19106.44974755  .00000534  00000-0  32705-4 0  9992
2 40905  97.4703 107.1797 0017531  64.5035  68.8247 15.14235276197303
XW-2C
1 40906U 15049H   19106.29405466  .00000843  00000-0  47766-4 0  9990
2 40906  97.4683 109.4303 0016780  62.0521  63.4540 15.15587737197396
XW-2D
1 40907U 15049J   19106.40791946  .00001197  00000-0  66058-4 0  9993
2 40907  97.4665 109.2199 0016042  60.0927  46.4219 15.15771477197421
LILACSAT 2
1 40908U 15049K   19106.40370931  .00000861  00000-0  51234-4 0  9998
2 40908  97.4793 108.1651 0017769  64.9071  44.8150 15.13752441197238
XW-2F
1 40910U 15049M   19106.30019934  .00001391  00000-0  73282-4 0  9999
2 40910  97.4634 110.9767 0016450  54.0751  71.3123 15.17157598197405
XW-2B
1 40911U 15049N   19106.37183663  .00000764  00000-0  43497-4 0  9996
2 40911  97.4677 109.8166 0015933  59.7152  47.5338 15.15700872197315
KAITUO 1B
1 40912U 15049P   19106.49914324  .00001704  00000-0  83374-4 0  9999
2 40912  97.4523 114.6779 0016413  39.0895 119.8152 15.19453683197719
TIANWANG 1C (TW-1C)
1 40926U 15051B   19106.40251557  .00013114  00000-0  20143-3 0  9992
2 40926  97.1439 152.6945 0006799 237.5749 250.6351 15.54366689200328
